{"data":{"norad_id":59644,"epoch":"2026-09-21T00:00:14.207616Z","epoch_age_seconds":125003,"freshness":"FRESH","line1":"1 59644U 24082P   26264.00016444  .00009812  00000+0  36552-3 0  9996","line2":"2 59644  43.0015 116.6653 0001593 262.8058  97.2613 15.27587348134882","mean_motion":15.27587348,"eccentricity":0.0001593,"inclination_deg":43.0015,"raan_deg":116.6653,"arg_perigee_deg":262.8058,"mean_anomaly_deg":97.2613,"bstar":0.00036552,"rev_number":13488,"period_min":94.266295271778,"perigee_km":481.93411013232,"apogee_km":484.12007701253,"semimajor_km":6861.1640935724,"source":"CELESTRAK","updated_at":"2026-09-22T09:00:49.021381Z"}}